Regional Weather Roundup
Issued by NWS

Home | Current Version | Previous Version | Text Only | Print | Product List | Glossary On
Versions: 1 2 3 4 5 6 7 8 9 10 11 12 13 14 15 16 17 18 19 20 21 22 23 24 25 26 27 28 29 30 31 32 33 34 35 36 37 38 39 40 41 42 43 44 45 46 47 48 49 50
000
ASUS43 KTOP 291708
RWRKS

WEATHER ROUNDUP FOR KANSAS
NATIONAL WEATHER SERVICE GOODLAND KS
1200 PM CDT MON AUG 29 2016

NOTE:  "FAIR" INDICATES FEW OR NO CLOUDS BELOW 12,000 FEET WITH NO
SIGNIFICANT WEATHER AND/OR OBSTRUCTIONS TO VISIBILITY.

KSZ001>006-013>018-027>032-041>047-291800-
NORTHWEST KANSAS

CITY           SKY/WX    TMP DP  RH WIND       PRES   REMARKS
GOODLAND       CLOUDY    71  62  73 S13       30.26R
HAYS           CLOUDY    75  61  60 CALM      30.23R
HILL CITY      CLOUDY    71  68  90 SW5       30.24S
RUSSELL        CLOUDY    80  67  64 W5        30.21R
$$

KSZ061>065-074>080-084>089-291800-
SOUTHWEST KANSAS

CITY           SKY/WX    TMP DP  RH WIND       PRES   REMARKS
DODGE CITY     PTSUNNY   74  66  76 VRB3      30.23S
ELKHART          N/A     69  62  78 SE2         N/A
GARDEN CITY    LGT RAIN  70  65  84 SE5       30.25R
GREAT BEND     PTSUNNY   81  64  57 CALM      30.20S
LIBERAL        PTSUNNY   68  63  83 S7        30.26S
PRATT          MOSUNNY   76  66  71 SE7       30.22R
$$

KSZ066>073-081>083-090>101-291800-
SOUTHEAST KANSAS

CITY           SKY/WX    TMP DP  RH WIND       PRES   REMARKS
CHANUTE        SUNNY     87  72  60 E7        30.18F
COFFEYVILLE    LGT RAIN  73  71  93 W3        30.19F
HUTCHINSON     CLOUDY    82  71  69 S5        30.20R
MEDICINE LODGE   N/A     79  70  74 SE6       30.18F
NEWTON         CLOUDY    84  67  56 SE9       30.21R
PARSONS        CLOUDY    78  71  79 S8        30.20S
WICHITA INTL   CLOUDY    82  68  62 SE9       30.19R
WICHITA JABRA  CLOUDY    82  70  66 SE9       30.20R
WICHITA MCCONL CLOUDY    82  69  64 SE12      30.20R
WINFIELD       CLOUDY    82  71  69 VRB7      30.20R
$$

KSZ007>012-019>026-033>040-048>060-102>105-291800-
NORTHEAST KANSAS

CITY           SKY/WX    TMP DP  RH WIND       PRES   REMARKS
CONCORDIA      MOSUNNY   82  70  66 E7        30.20S
EMPORIA        CLOUDY    85  71  63 SE7       30.20R
LAWRENCE       MOSUNNY   86  72  62 S5        30.19S
MANHATTAN      SUNNY     86  74  67 SE6       30.19
MARYSVILLE     SUNNY     84  72  65 E6        30.20S
OLATHE IND     SUNNY     85  70  60 SE6       30.22R
OLATHE EXE     MOSUNNY   84  70  62 S8        30.21S
SALINA         MOSUNNY   85  72  65 SE6       30.20R
TOPEKA BILLARD SUNNY     87  69  54 VRB5      30.19S
TOPEKA FORBES  SUNNY     87  70  56 VRB3      30.20S
$$




USA.gov is the U.S. government's official web portal to all federal, state and local government web resources and services.